COSMOS 2251 DEB, 33766

Orbit data source: Space-Track

COSMOS 2251 DEB, 33766 is space debris in LEO originally from a launch on Wed, 16 Jun 1993 UTC launched from the Plesetsk Missile And Space Complex (PKMTR). The debris from Iridium 33, an American commercial communications satellite, has been tracked extensively since its accidental collision with the defunct Russian satellite Cosmos 2251 in 2009. This event, occurring at high speed in low Earth orbit (LEO), generated thousands of pieces of space debris, significantly increasing the risk of further collisions. The Iridium 33 debris cloud has impacted space traffic management and orbital debris mitigation strategies, making it a subject of ongoing study in space situational awareness.

Loading next visibility...
Identifier
33766, 1993-036P
Orbit
LEO
Country
Flag of CISCIS
Related business
Manufacturer
Unknown
Mission
Spacecraft
Bus & Motor
Unknown
Mass
Unknown
Launch date (UTC)
1993-06-16 (33 years ago)
Launch vehicle
Unknown
Launch site
Plesetsk Missile And Space Complex (PKMTR)
Object type
Payload
Rocket body
Debris
Shape & HBR
Unknown shape, 0.4 m
Radar Cross Section
Medium (>0.1 m² and <1 m²)

Expand to show TLE details & history
Last TLE update: 12 hours ago

TLE from 12 hours ago
0 COSMOS 2251 DEB
1 33766U 93036P   26169.37362898  .00001086  00000-0  37727-3 0  9990
2 33766  74.1846 154.0641 0064569 303.3593  56.1390 14.35521355904375
Epoch: 2026-06-18T08:58Z
TLE epoch observation values (Epoch: 2026-06-18T08:58:01.543Z)
Latitude
-0.00008°
Longitude
112.93977°
Altitude
750.427 km
Speed
7.493 km/s
True Right ascension
10h 16m 15s
True Declination
0° 00' 00"
Sunlit
Object was in daylight at epoch
Visualization orbit readout
Latitude
Unknown
Longitude
Unknown
Altitude
Unknown
Speed
Unknown
Apparent Right ascension
Unknown
Apparent Declination
Unknown
Sunlit
N/A
Visualization observer readout
Local Sidereal Time
07:55:43
Azimuth
Unknown
Elevation
Unknown
Doppler factor
Unknown
Orbital elements
Apogee altitude
817.107 km
Perigee altitude
724.785 km
Semi-major axis
7,149.083 km
Eccentricity
0.00646
Inclination
74.1846°
RAAN
154.0641°
Arg. of periapsis
303.3593°
True anomaly
56.75618°
Mean anomaly
56.139°
Eccentric anomaly
56.44731°
Mean motion
3.59061 °/min
Orbital period
100.26 mins
BSTAR
0.00037727
Loading maneuver chart data...
Computing Atmospheric mass density...
Loading historical data...
Loading historical data...
Loading historical data...
Loading historical data...
Loading historical data...
Loading historical data...
Loading historical data...

Documentation

Showing up to 5 results
|